EW4427 Weather Reports


time (UTC)temp
C
wind
direction
speed
KPH
gust
KPH
rain 1hr
cm
rain 24hr
cm
rain mn
cm
humidity
%
barometer
mb
20260831085545 21 0 0.0 0.0 0.00 0.03 0.00 92 1013.3
20260831085044 21 0 0.0 0.0 0.00 0.03 0.00 92 1013.3
20260831084600 21 0 0.0 0.0 0.00 0.03 0.00 92 1013.4
20260831084044 21 0 0.0 0.0 0.00 0.03 0.00 92 1013.4
20260831083543 21 0 0.0 0.0 0.00 0.03 0.00 92 1013.3
20260831083110 21 0 0.0 0.0 0.00 0.03 0.00 92 1013.4
20260831082544 21 0 0.0 0.0 0.00 0.03 0.00 92 1013.3
20260831082044 21 0 0.0 0.0 0.00 0.03 0.00 92 1013.3
20260831081601 21 0 0.0 0.0 0.00 0.03 0.00 92 1013.3
20260831081042 21 0 0.0 0.0 0.00 0.03 0.00 92 1013.4
20260831080544 21 0 0.0 0.0 0.00 0.03 0.00 92 1013.4
20260831080110 21 0 0.0 0.0 0.00 0.03 0.00 92 1013.4
20260831075541 21 0 0.0 0.0 0.00 0.03 0.00 92 1013.5
20260831075047 21 0 0.0 0.0 0.00 0.03 0.00 92 1013.5
20260831074602 21 0 0.0 0.0 0.00 0.03 0.00 92 1013.6
20260831074044 21 0 0.0 0.0 0.00 0.03 0.00 92 1013.7
20260831073543 21 0 0.0 0.0 0.00 0.03 0.00 91 1013.7
20260831073102 21 0 0.0 0.0 0.00 0.03 0.00 91 1013.7
20260831072544 21 0 0.0 0.0 0.00 0.03 0.00 91 1013.8
20260831072043 21 0 0.0 0.0 0.00 0.03 0.00 91 1014.0
20260831071603 21 0 0.0 0.0 0.00 0.03 0.00 91 1014.1
20260831071043 21 0 0.0 0.0 0.00 0.03 0.00 91 1014.1
20260831070544 21 0 0.0 0.0 0.00 0.03 0.00 91 1014.2
20260831070101 21 0 0.0 0.0 0.00 0.03 0.00 91 1014.2
20260831065546 21 0 0.0 0.0 0.00 0.03 0.00 91 1014.4
20260831065045 21 0 0.0 0.0 0.00 0.03 0.00 91 1014.3
20260831064604 21 0 0.0 0.0 0.00 0.03 0.00 91 1014.3
20260831064047 21 0 0.0 0.0 0.00 0.03 0.00 91 1014.4
20260831063547 21 0 0.0 0.0 0.00 0.03 0.00 91 1014.5
20260831063103 21 0 0.0 0.0 0.00 0.03 0.00 91 1014.4
20260831062546 21 0 0.0 0.0 0.00 0.03 0.00 91 1014.4
20260831062046 21 0 0.0 0.0 0.00 0.03 0.00 91 1014.5
20260831061607 21 0 0.0 0.0 0.00 0.03 0.00 91 1014.5
20260831061045 21 0 0.0 0.0 0.00 0.03 0.00 91 1014.5
20260831060545 21 0 0.0 0.0 0.00 0.03 0.00 90 1014.5
20260831060109 21 0 0.0 0.0 0.00 0.03 0.00 90 1014.4
20260831055546 21 0 0.0 0.0 0.00 0.03 0.00 90 1014.5
20260831055046 21 0 0.0 0.0 0.00 0.03 0.00 90 1014.4
20260831054604 21 0 0.0 0.0 0.00 0.03 0.00 90 1014.3
20260831054046 22 0 0.0 0.0 0.00 0.03 0.00 90 1014.4
20260831053547 22 0 0.0 0.0 0.00 0.03 0.00 90 1014.3
20260831053101 22 0 0.0 0.0 0.00 0.03 0.00 90 1014.4
20260831052547 22 0 0.0 0.0 0.00 0.03 0.00 89 1014.4
20260831052046 22 0 0.0 0.0 0.00 0.03 0.00 89 1014.3
20260831051613 22 0 0.0 0.0 0.00 0.03 0.00 89 1014.4
20260831051045 22 0 0.0 0.0 0.00 0.03 0.00 89 1014.2
20260831050544 22 0 0.0 0.0 0.00 0.03 0.00 89 1014.3
20260831050106 22 0 0.0 0.0 0.00 0.03 0.00 89 1014.2
20260831045545 22 0 0.0 0.0 0.00 0.03 0.03 89 1014.3
20260831045047 22 0 0.0 0.0 0.00 0.03 0.03 90 1014.1
20260831044601 22 0 0.0 0.0 0.00 0.03 0.03 90 1014.1
20260831044046 22 0 0.0 0.0 0.00 0.03 0.03 90 1014.1
20260831043545 22 0 0.0 8.0 0.00 0.03 0.03 90 1014.2
20260831043059 22 0 0.0 11.3 0.00 0.03 0.03 90 1014.1
20260831042547 22 185 4.8 12.9 0.00 0.03 0.03 90 1014.0
20260831042046 22 204 8.0 12.9 0.00 0.03 0.03 90 1013.8
20260831041621 22 184 4.8 11.3 0.00 0.03 0.03 90 1013.8
20260831041048 22 198 4.8 14.5 0.00 0.03 0.03 90 1013.9
20260831040547 22 190 6.4 14.5 0.00 0.03 0.03 90 1013.9
20260831040104 22 187 8.0 14.5 0.00 0.03 0.03 90 1013.8
20260831035545 22 188 6.4 14.5 0.00 0.03 0.03 90 1014.0
20260831035044 22 191 4.8 17.7 0.00 0.03 0.03 90 1014.0
20260831034601 22 191 11.3 17.7 0.00 0.03 0.03 90 1013.7
20260831034045 22 193 11.3 16.1 0.00 0.03 0.03 90 1013.8
20260831033544 22 190 11.3 16.1 0.00 0.03 0.03 90 1013.7
20260831033102 22 185 9.7 16.1 0.00 0.03 0.03 91 1013.4
20260831032546 22 178 9.7 12.9 0.00 0.03 0.03 91 1013.9
20260831032048 22 186 8.0 12.9 0.00 0.03 0.03 91 1014.3
20260831031601 22 181 6.4 11.3 0.00 0.03 0.03 90 1014.3
20260831031043 22 186 0.0 1.6 0.00 0.03 0.03 89 1014.5
20260831030545 22 0 0.0 1.6 0.00 0.03 0.03 89 1014.8
20260831030114 22 0 0.0 4.8 0.00 0.03 0.03 90 1014.7
20260831025544 22 0 0.0 8.0 0.00 0.03 0.03 90 1015.0
20260831025044 22 186 3.2 12.9 0.00 0.03 0.03 90 1014.7
20260831024638 22 196 4.8 12.9 0.00 0.03 0.03 90 1014.7
20260831024046 22 185 6.4 12.9 0.00 0.03 0.03 90 1014.4
20260831023546 22 190 3.2 14.5 0.00 0.03 0.03 89 1014.3
20260831023100 22 183 3.2 17.7 0.00 0.03 0.03 90 1014.5
20260831022543 22 179 6.4 17.7 0.00 0.03 0.03 90 1014.5
20260831022043 22 200 11.3 17.7 0.00 0.03 0.03 90 1014.0
20260831021604 22 184 9.7 17.7 0.00 0.03 0.03 90 1014.2
20260831021044 22 187 9.7 17.7 0.00 0.03 0.03 91 1014.2
20260831020546 22 194 6.4 11.3 0.00 0.03 0.03 91 1014.3
20260831020059 22 194 4.8 17.7 0.00 0.03 0.03 91 1014.4
20260831015545 22 188 8.0 17.7 0.00 0.03 0.03 91 1014.5
20260831015045 22 185 11.3 17.7 0.00 0.03 0.03 92 1014.0
20260831014612 21 186 6.4 20.9 0.00 0.03 0.03 91 1014.3
20260831014046 21 202 8.0 20.9 0.00 0.03 0.03 92 1014.5
20260831013546 21 182 6.4 16.1 0.00 0.03 0.03 91 1014.3
20260831013113 21 180 6.4 9.7 0.00 0.03 0.03 92 1014.7
20260831012546 21 189 4.8 9.7 0.00 0.03 0.03 91 1014.7
20260831012047 21 186 3.2 9.7 0.00 0.03 0.03 91 1014.8
20260831011605 21 195 1.6 9.7 0.00 0.03 0.03 91 1014.8
20260831011046 21 176 4.8 11.3 0.00 0.03 0.03 91 1014.6
20260831010546 21 188 6.4 11.3 0.00 0.03 0.03 92 1014.3
20260831010105 21 193 6.4 12.9 0.00 0.03 0.03 92 1014.0
20260831005546 21 192 4.8 12.9 0.00 0.03 0.03 92 1014.0
20260831005046 21 202 6.4 12.9 0.00 0.03 0.03 92 1013.9
20260831004602 21 196 6.4 9.7 0.00 0.03 0.03 91 1014.1
20260831004046 21 188 3.2 8.0 0.00 0.03 0.03 91 1014.2
20260831003547 21 180 3.2 8.0 0.00 0.03 0.03 91 1014.2
20260831003059 21 200 3.2 8.0 0.00 0.03 0.03 91 1014.0
20260831002546 21 190 3.2 8.0 0.00 0.03 0.03 91 1013.9
20260831002046 22 200 4.8 9.7 0.00 0.03 0.03 91 1014.0
20260831001607 22 192 3.2 12.9 0.00 0.03 0.03 91 1013.9
20260831001046 22 184 4.8 12.9 0.00 0.03 0.03 91 1013.9
20260831000547 22 181 4.8 12.9 0.00 0.03 0.03 91 1013.7
20260831000105 22 190 4.8 16.1 0.00 0.03 0.03 91 1013.8
20260830235546 22 184 6.4 16.1 0.00 0.03 0.03 91 1013.6
20260830235046 22 191 8.0 16.1 0.00 0.03 0.03 91 1013.6
20260830234608 22 201 8.0 16.1 0.00 0.03 0.03 91 1013.6
20260830234049 22 207 9.7 16.1 0.00 0.03 0.03 91 1013.5
20260830233546 22 198 6.4 12.9 0.00 0.03 0.03 91 1013.5
20260830233106 22 178 6.4 11.3 0.00 0.03 0.03 91 1013.5
20260830232546 22 198 4.8 17.7 0.00 0.03 0.03 91 1013.7
20260830232047 22 181 6.4 17.7 0.00 0.03 0.03 91 1013.8
20260830231605 22 188 9.7 20.9 0.00 0.03 0.03 91 1013.6
20260830231049 22 190 11.3 20.9 0.00 0.03 0.03 91 1013.5
20260830230545 22 193 8.0 14.5 0.00 0.03 0.03 92 1013.7
20260830230104 22 201 8.0 14.5 0.00 0.03 0.03 92 1013.8
20260830225546 22 167 4.8 9.7 0.00 0.03 0.03 92 1013.9
20260830225046 22 186 3.2 6.4 0.00 0.03 0.03 92 1014.0
20260830224610 22 192 1.6 6.4 0.00 0.03 0.03 93 1013.9
20260830224046 22 173 1.6 9.7 0.00 0.03 0.03 93 1013.9
20260830223546 22 192 1.6 9.7 0.00 0.03 0.03 93 1013.8
20260830223105 22 199 4.8 9.7 0.00 0.03 0.03 93 1013.7
20260830222546 22 188 3.2 9.7 0.00 0.03 0.03 93 1013.8
20260830222046 22 195 3.2 8.0 0.00 0.03 0.03 93 1013.7
20260830221603 21 0 0.0 1.6 0.00 0.03 0.03 92 1013.8
20260830221046 21 0 0.0 3.2 0.00 0.03 0.03 92 1013.9
20260830220546 21 199 0.0 3.2 0.00 0.03 0.03 92 1013.9
20260830220103 21 199 0.0 3.2 0.00 0.03 0.03 92 1013.9
20260830215547 21 199 0.0 3.2 0.00 0.03 0.03 91 1014.0
20260830215048 21 0 0.0 1.6 0.00 0.03 0.03 91 1013.9
20260830214605 21 0 0.0 1.6 0.00 0.03 0.03 91 1013.8
20260830214048 21 0 0.0 1.6 0.00 0.03 0.03 90 1013.9
20260830213546 21 0 0.0 1.6 0.00 0.03 0.03 90 1013.8
20260830213057 21 0 0.0 3.2 0.00 0.03 0.03 90 1013.8
20260830212544 21 0 0.0 3.2 0.00 0.03 0.03 90 1013.7
20260830212046 21 199 0.0 6.4 0.00 0.03 0.03 90 1013.5
20260830211602 21 199 1.6 9.7 0.00 0.03 0.03 90 1013.6
20260830211044 22 195 3.2 9.7 0.00 0.03 0.03 90 1013.4
20260830210545 22 194 3.2 9.7 0.00 0.03 0.03 90 1013.5
20260830210101 22 0 0.0 6.4 0.00 0.03 0.03 89 1013.5
20260830205544 22 184 1.6 6.4 0.00 0.03 0.03 89 1013.6
20260830205044 22 173 0.0 6.4 0.00 0.03 0.03 89 1013.7
20260830204603 22 0 1.6 6.4 0.00 0.03 0.03 89 1013.7
20260830204049 22 199 3.2 4.8 0.00 0.03 0.03 89 1013.7
20260830203544 22 0 1.6 6.4 0.00 0.03 0.03 88 1013.5
20260830203123 22 185 1.6 8.0 0.00 0.03 0.03 88 1013.8
20260830202546 22 195 3.2 8.0 0.00 0.03 0.03 88 1013.8
20260830202043 22 169 3.2 9.7 0.00 0.03 0.03 88 1013.7
20260830201615 22 178 4.8 9.7 0.00 0.03 0.03 87 1013.8
20260830201045 22 191 4.8 8.0 0.00 0.03 0.03 87 1013.9
20260830200544 22 200 4.8 8.0 0.00 0.03 0.03 86 1013.9
20260830200057 22 200 3.2 11.3 0.00 0.03 0.03 85 1014.0
20260830195544 23 206 3.2 11.3 0.00 0.03 0.03 85 1014.0
20260830195044 23 178 4.8 9.7 0.00 0.03 0.03 84 1014.3
20260830194608 23 184 1.6 9.7 0.00 0.03 0.03 83 1014.4
20260830194044 23 180 1.6 9.7 0.00 0.03 0.03 83 1014.3
20260830193544 23 198 3.2 8.0 0.00 0.03 0.03 83 1014.3
20260830193106 23 186 1.6 8.0 0.00 0.03 0.03 82 1014.4
20260830192544 24 180 4.8 11.3 0.00 0.03 0.03 82 1014.2
20260830192044 24 191 4.8 11.3 0.00 0.03 0.03 80 1014.3
20260830191603 25 185 6.4 14.5 0.00 0.03 0.03 79 1014.3
20260830191044 25 180 4.8 16.1 0.00 0.03 0.03 78 1014.3
20260830190544 25 173 6.4 16.1 0.00 0.03 0.03 77 1014.3
20260830185544 26 178 6.4 16.1 0.00 0.03 0.03 74 1014.0
20260830185044 26 194 6.4 19.3 0.00 0.03 0.03 75 1013.9
20260830184559 26 175 9.7 19.3 0.00 0.03 0.03 74 1013.8
20260830184044 26 186 12.9 19.3 0.00 0.03 0.03 73 1013.6
20260830183545 26 169 6.4 20.9 0.00 0.03 0.03 74 1013.6
20260830183112 26 182 11.3 24.1 0.00 0.03 0.03 72 1013.7
20260830182545 26 176 9.7 24.1 0.00 0.03 0.03 71 1013.5
20260830182046 27 201 11.3 22.5 0.00 0.03 0.03 72 1013.4
20260830181625 27 195 9.7 22.5 0.00 0.03 0.03 71 1013.3
20260830181045 27 172 11.3 22.5 0.00 0.03 0.03 71 1013.2
20260830180545 27 178 11.3 19.3 0.00 0.03 0.03 70 1013.2
20260830180113 27 180 11.3 22.5 0.00 0.03 0.03 70 1013.0
20260830175545 27 187 9.7 22.5 0.00 0.03 0.03 70 1012.9
20260830175045 27 186 14.5 20.9 0.00 0.03 0.03 69 1012.8
20260830174617 27 185 8.0 14.5 0.00 0.03 0.03 69 1012.9
20260830174048 27 190 6.4 19.3 0.00 0.03 0.03 68 1012.9
20260830173545 27 188 9.7 27.4 0.00 0.03 0.03 67 1012.7
20260830173120 27 203 11.3 27.4 0.00 0.03 0.03 67 1012.8
20260830172547 27 200 16.1 27.4 0.00 0.03 0.03 66 1012.9
20260830172045 27 176 11.3 17.7 0.00 0.03 0.03 67 1013.1
20260830171619 27 189 9.7 22.5 0.00 0.03 0.03 67 1012.9
20260830171045 27 168 11.3 22.5 0.00 0.03 0.03 68 1012.9
20260830170548 27 182 9.7 17.7 0.00 0.03 0.03 69 1012.7
20260830170110 27 175 6.4 17.7 0.00 0.03 0.03 69 1012.9
20260830165546 27 197 8.0 17.7 0.00 0.03 0.03 71 1012.8
20260830165045 27 192 9.7 19.3 0.00 0.03 0.03 70 1013.0
20260830164621 27 186 8.0 19.3 0.00 0.03 0.03 71 1013.1
20260830164045 26 200 9.7 19.3 0.00 0.03 0.03 70 1013.1
20260830163545 26 181 9.7 17.7 0.00 0.03 0.03 71 1013.1
20260830163112 26 184 8.0 20.9 0.00 0.03 0.03 73 1013.1
20260830162546 26 170 9.7 20.9 0.00 0.03 0.03 73 1013.1
20260830162045 26 199 9.7 20.9 0.00 0.03 0.03 71 1013.1
20260830161604 26 200 9.7 22.5 0.00 0.03 0.03 71 1013.2
20260830161044 26 194 12.9 22.5 0.00 0.03 0.03 72 1013.2
20260830160545 26 229 9.7 17.7 0.00 0.03 0.03 75 1013.3
20260830160105 26 196 8.0 17.7 0.00 0.03 0.03 75 1013.4
20260830155545 25 186 6.4 14.5 0.00 0.03 0.03 76 1013.5
20260830155045 25 178 6.4 14.5 0.00 0.03 0.03 76 1013.4
20260830154601 25 186 4.8 12.9 0.00 0.03 0.03 77 1013.4
20260830154044 25 186 4.8 16.1 0.00 0.03 0.03 76 1013.4
20260830153546 25 196 6.4 20.9 0.00 0.03 0.03 78 1013.3
20260830153108 24 185 9.7 20.9 0.00 0.03 0.03 77 1013.2
20260830152545 24 184 8.0 16.1 0.00 0.03 0.03 79 1013.2
20260830152045 24 179 6.4 11.3 0.00 0.03 0.03 79 1013.1
20260830151605 23 194 4.8 16.1 0.00 0.03 0.03 80 1013.3
20260830151046 23 182 4.8 17.7 0.00 0.03 0.03 80 1013.3
20260830150546 23 202 6.4 19.3 0.00 0.03 0.03 80 1013.1
20260830150101 23 209 9.7 22.5 0.00 0.03 0.03 80 1013.1
20260830145545 23 183 11.3 22.5 0.00 0.03 0.03 81 1013.2
20260830145045 23 169 11.3 20.9 0.00 0.03 0.03 81 1013.3
20260830144604 23 193 8.0 22.5 0.00 0.03 0.03 82 1013.2
20260830144049 22 196 9.7 22.5 0.00 0.03 0.03 82 1013.0
20260830143546 22 182 11.3 22.5 0.00 0.03 0.03 83 1012.9
20260830143115 22 188 9.7 20.9 0.03 0.03 0.03 83 1013.0
20260830142546 22 186 11.3 22.5 0.03 0.03 0.03 84 1013.1
20260830142045 22 186 11.3 22.5 0.03 0.03 0.03 84 1013.2
20260830141602 22 188 12.9 22.5 0.03 0.03 0.03 85 1013.3
20260830141045 22 196 11.3 25.7 0.03 0.03 0.03 86 1013.5
20260830140545 21 178 9.7 25.7 0.03 0.03 0.03 86 1013.5
20260830140104 21 184 14.5 25.7 0.03 0.03 0.03 86 1013.3
20260830135545 21 188 14.5 24.1 0.03 0.03 0.03 87 1013.3
20260830135048 21 192 11.3 20.9 0.03 0.03 0.03 88 1013.5
20260830134623 21 184 11.3 24.1 0.03 0.03 0.03 88 1013.6
20260830134047 21 188 11.3 24.1 0.03 0.03 0.03 88 1013.6
20260830133549 21 171 11.3 19.3 0.03 0.03 0.03 89 1013.6
20260830133141 21 186 9.7 19.3 0.00 0.00 0.00 89 1013.7
20260830132545 20 186 9.7 19.3 0.00 0.00 0.00 89 1013.8
20260830132045 20 187 11.3 19.3 0.00 0.00 0.00 90 1013.8
20260830131616 20 189 9.7 19.3 0.00 0.00 0.00 90 1013.9
20260830131045 20 183 12.9 19.3 0.00 0.00 0.00 90 1013.9
20260830130545 20 188 11.3 19.3 0.00 0.00 0.00 90 1013.9
20260830130106 20 188 11.3 17.7 0.00 0.00 0.00 90 1013.8
20260830125545 20 182 9.7 20.9 0.00 0.00 0.00 90 1014.0
20260830125045 20 183 11.3 20.9 0.00 0.00 0.00 91 1014.1
20260830124618 20 194 11.3 17.7 0.00 0.00 0.00 91 1014.1
20260830124045 20 195 8.0 19.3 0.00 0.00 0.00 91 1014.2
20260830123545 20 180 6.4 19.3 0.00 0.00 0.00 91 1014.2
20260830123100 20 188 9.7 17.7 0.00 0.00 0.00 91 1014.2
20260830122544 20 188 8.0 16.1 0.00 0.00 0.00 91 1014.0
20260830122138 20 190 8.0 19.3 0.00 0.00 0.00 91 1014.0
20260830121603 20 188 6.4 19.3 0.00 0.00 0.00 91 1014.0
20260830121044 20 185 11.3 17.7 0.00 0.00 0.00 91 1013.9
20260830120545 20 188 8.0 20.9 0.00 0.00 0.00 90 1014.1
20260830115545 20 179 9.7 19.3 0.00 0.00 0.00 90 1014.2
20260830115046 20 181 9.7 22.5 0.00 0.00 0.00 90 1014.1
20260830114619 20 192 12.9 22.5 0.00 0.00 0.00 90 1014.0
20260830114045 20 184 9.7 19.3 0.00 0.00 0.00 89 1013.8
20260830113545 20 186 8.0 19.3 0.00 0.00 0.00 88 1013.9
20260830113103 20 174 9.7 20.9 0.00 0.00 0.00 88 1013.8
20260830112546 20 196 9.7 20.9 0.00 0.00 0.00 88 1013.9
20260830112046 21 203 11.3 19.3 0.00 0.00 0.00 86 1013.7
20260830111600 21 180 8.0 19.3 0.00 0.00 0.00 86 1013.9
20260830111045 21 176 9.7 19.3 0.00 0.00 0.00 85 1013.8
20260830110544 21 192 11.3 19.3 0.00 0.00 0.00 85 1013.4
20260830105549 21 200 12.9 22.5 0.00 0.00 0.00 84 1013.3
20260830105045 21 191 11.3 19.3 0.00 0.00 0.00 85 1013.2
20260830104601 21 184 9.7 19.3 0.00 0.00 0.00 84 1013.4
20260830104045 21 201 9.7 19.3 0.00 0.00 0.00 85 1013.4
20260830103547 21 187 9.7 16.1 0.00 0.00 0.00 85 1013.3
20260830103103 20 182 9.7 17.7 0.00 0.00 0.00 86 1013.4
20260830102546 20 181 11.3 19.3 0.00 0.00 0.00 86 1013.2
20260830102044 20 186 11.3 25.7 0.00 0.00 0.00 87 1013.2
20260830101601 20 192 12.9 29.0 0.00 0.00 0.00 89 1012.9
20260830101045 19 196 17.7 33.8 0.00 0.00 0.00 91 1012.9
20260830100547 19 211 17.7 33.8 0.00 0.00 0.00 91 1013.1
20260830095547 20 194 19.3 30.6 0.00 0.00 0.00 92 1013.4
20260830095047 20 181 19.3 30.6 0.00 0.00 0.00 92 1013.7
20260830094604 20 171 20.9 30.6 0.00 0.00 0.00 92 1013.8
20260830094045 20 193 17.7 27.4 0.00 0.00 0.00 93 1013.8
20260830093546 20 182 12.9 25.7 0.00 0.00 0.00 92 1014.2
20260830093100 20 186 11.3 20.9 0.00 0.00 0.00 91 1014.1
20260830092545 20 191 8.0 25.7 0.00 0.00 0.00 90 1014.3
20260830092045 20 186 11.3 27.4 0.00 0.00 0.00 89 1014.2
20260830091559 20 176 17.7 27.4 0.00 0.00 0.00 89 1014.2
20260830091048 21 204 16.1 27.4 0.00 0.00 0.00 87 1014.3
20260830090547 21 189 1.6 6.4 0.00 0.00 0.00 83 1014.8
20260830090106 21 0 0.0 4.8 0.00 0.00 0.00 82 1015.0